Tracking 32412 objects as of 6-Dec-2025
HD Live streaming from Space Station
objects crossing your sky now

ARIANE 5 R/B

Track ARIANE 5 R/B now!
10-day predictions


NORAD ID: 41383
Int'l Code: 2016-014B
Perigee: 201.8 km
Apogee: 25,394.3 km
Inclination: 0.5 °
Period: 440.2 minutes
Semi major axis: 19169 km
RCS: Unknown
Launch date: March 9, 2016
Source: France (FR)
Launch site: FRENCH GUIANA (FRGUI)

Note: This is a ROCKET BODY
Your satellite tracking list
Your tracking list is empty




NASA's NSSDC Master Catalog

Two Line Element Set (TLE):
1 41383U 16014B   25339.62151160  .00032004  43930-6  13124-2 0  9992
2 41383   0.5402  71.2942 6571133 222.5456  12.3864  3.27116055 96301
Source of the keplerian elements: AFSPC